TimeCST,TemperatureF,Dew PointF,Humidity,Sea Level PressureIn,VisibilityMPH,Wind Direction,Wind SpeedMPH,Gust SpeedMPH,PrecipitationIn,Events,Conditions,WindDirDegrees,DateUTC
12:15 AM,32.0,30.2,93,29.88,7.0,NNW,13.8,19.6,N/A,Snow,Light Snow,330,2013-02-28 06:15:00
12:35 AM,32.0,30.2,93,29.89,7.0,NW,12.7,-,N/A,Snow,Light Snow,320,2013-02-28 06:35:00
12:55 AM,32.0,30.2,93,29.89,10.0,NW,11.5,18.4,N/A,,Overcast,320,2013-02-28 06:55:00
1:15 AM,32.0,30.2,93,29.90,10.0,NW,12.7,17.3,N/A,,Overcast,320,2013-02-28 07:15:00
1:35 AM,32.0,30.2,93,29.90,10.0,NW,12.7,-,N/A,,Overcast,320,2013-02-28 07:35:00
1:55 AM,32.0,30.2,93,29.91,10.0,NW,11.5,-,N/A,,Overcast,320,2013-02-28 07:55:00
2:15 AM,32.0,30.2,93,29.91,10.0,NNW,12.7,-,N/A,,Overcast,330,2013-02-28 08:15:00
2:35 AM,32.0,30.2,93,29.91,10.0,NW,12.7,-,N/A,,Overcast,320,2013-02-28 08:35:00
2:55 AM,32.0,30.2,93,29.91,10.0,NW,13.8,19.6,N/A,,Overcast,320,2013-02-28 08:55:00
3:15 AM,32.0,30.2,93,29.91,10.0,NW,15.0,-,N/A,Snow,Light Snow,320,2013-02-28 09:15:00
3:55 AM,30.2,28.4,93,29.92,7.0,NW,15.0,21.9,N/A,Snow,Light Snow,320,2013-02-28 09:55:00
4:35 AM,30.2,28.4,93,29.93,10.0,NNW,16.1,-,N/A,,Overcast,330,2013-02-28 10:35:00
4:55 AM,30.2,28.4,93,29.94,10.0,NW,13.8,-,N/A,,Overcast,320,2013-02-28 10:55:00
5:15 AM,30.2,28.4,93,29.95,10.0,NW,11.5,18.4,N/A,,Overcast,320,2013-02-28 11:15:00
5:35 AM,30.2,28.4,93,29.96,10.0,NNW,11.5,-,N/A,,Overcast,330,2013-02-28 11:35:00
5:55 AM,30.2,28.4,93,29.97,10.0,NW,10.4,-,N/A,,Overcast,320,2013-02-28 11:55:00
6:15 AM,28.4,26.6,93,29.97,10.0,NW,13.8,19.6,N/A,,Overcast,320,2013-02-28 12:15:00
6:35 AM,28.4,26.6,93,29.98,10.0,NW,15.0,19.6,N/A,,Overcast,320,2013-02-28 12:35:00
6:55 AM,28.4,26.6,93,29.98,10.0,NW,11.5,-,N/A,,Mostly Cloudy,320,2013-02-28 12:55:00
7:15 AM,28.4,26.6,93,29.99,10.0,NW,13.8,-,N/A,,Scattered Clouds,320,2013-02-28 13:15:00
7:35 AM,28.4,26.6,93,30.00,10.0,NW,12.7,-,N/A,,Scattered Clouds,320,2013-02-28 13:35:00
7:55 AM,28.4,26.6,93,30.01,10.0,NW,13.8,-,N/A,,Mostly Cloudy,320,2013-02-28 13:55:00
8:15 AM,30.2,26.6,86,30.02,10.0,NW,13.8,-,N/A,,Mostly Cloudy,320,2013-02-28 14:15:00
8:35 AM,30.2,26.6,86,30.02,7.0,NW,16.1,-,N/A,Snow,Light Snow,320,2013-02-28 14:35:00
8:55 AM,30.2,26.6,86,30.02,4.0,NW,16.1,-,N/A,Snow,Light Snow,320,2013-02-28 14:55:00
9:15 AM,30.2,26.6,86,30.02,7.0,NNW,15.0,-,N/A,Snow,Light Snow,330,2013-02-28 15:15:00
9:55 AM,32.0,28.4,87,30.04,7.0,NNW,15.0,-,N/A,,Mostly Cloudy,330,2013-02-28 15:55:00
10:15 AM,32.0,28.4,87,30.04,7.0,NNW,13.8,-,N/A,Snow,Light Snow,330,2013-02-28 16:15:00
10:35 AM,32.0,28.4,87,30.05,4.0,NNW,15.0,-,N/A,Snow,Light Snow,330,2013-02-28 16:35:00
10:55 AM,32.0,28.4,87,30.05,10.0,NNW,13.8,-,N/A,,Overcast,330,2013-02-28 16:55:00
11:15 AM,33.8,28.4,81,30.05,10.0,NNW,11.5,-,N/A,,Overcast,330,2013-02-28 17:15:00
11:35 AM,33.8,28.4,81,30.06,10.0,NNW,12.7,-,N/A,,Overcast,340,2013-02-28 17:35:00
11:55 AM,33.8,28.4,81,30.06,10.0,NNW,12.7,-,N/A,,Overcast,330,2013-02-28 17:55:00
12:15 PM,33.8,28.4,81,30.06,10.0,NNW,12.7,-,N/A,,Overcast,330,2013-02-28 18:15:00
12:35 PM,35.6,28.4,75,30.06,10.0,NNW,13.8,18.4,N/A,,Overcast,330,2013-02-28 18:35:00
12:55 PM,35.6,28.4,75,30.06,10.0,NNW,15.0,-,N/A,,Overcast,330,2013-02-28 18:55:00
1:15 PM,35.6,28.4,75,30.06,10.0,NNW,12.7,-,N/A,,Overcast,330,2013-02-28 19:15:00
1:35 PM,35.6,28.4,75,30.06,10.0,NW,9.2,-,N/A,,Overcast,320,2013-02-28 19:35:00
1:55 PM,35.6,28.4,75,30.06,10.0,NW,12.7,18.4,N/A,,Overcast,320,2013-02-28 19:55:00
2:15 PM,35.6,28.4,75,30.06,10.0,NNW,13.8,-,N/A,,Overcast,340,2013-02-28 20:15:00
2:35 PM,35.6,28.4,75,30.06,10.0,NNW,10.4,-,N/A,,Overcast,330,2013-02-28 20:35:00
3:35 PM,33.8,28.4,81,30.08,10.0,NW,13.8,-,N/A,,Overcast,320,2013-02-28 21:35:00
3:55 PM,33.8,28.4,81,30.08,10.0,NW,10.4,-,N/A,,Overcast,320,2013-02-28 21:55:00
4:15 PM,33.8,28.4,81,30.08,10.0,NW,11.5,-,N/A,,Overcast,320,2013-02-28 22:15:00
4:35 PM,33.8,28.4,81,30.08,10.0,NW,13.8,-,N/A,,Overcast,320,2013-02-28 22:35:00
4:55 PM,33.8,28.4,81,30.09,10.0,NW,11.5,-,N/A,,Overcast,320,2013-02-28 22:55:00
5:15 PM,32.0,28.4,87,30.09,10.0,NNW,13.8,-,N/A,,Overcast,330,2013-02-28 23:15:00
5:35 PM,32.0,28.4,87,30.10,10.0,NNW,13.8,-,N/A,,Overcast,330,2013-02-28 23:35:00
6:15 PM,30.2,28.4,93,30.11,2.5,NW,10.4,-,N/A,Snow,Light Snow,320,2013-03-01 00:15:00
6:35 PM,30.2,28.4,93,30.11,2.5,NW,11.5,-,N/A,Snow,Light Snow,310,2013-03-01 00:35:00
6:55 PM,30.2,28.4,93,30.11,3.0,NW,12.7,-,N/A,Snow,Light Snow,310,2013-03-01 00:55:00
7:15 PM,30.2,28.4,93,30.11,2.5,NW,12.7,-,N/A,Snow,Light Snow,310,2013-03-01 01:15:00
7:35 PM,30.2,28.4,93,30.11,3.0,NW,12.7,-,N/A,Snow,Light Snow,310,2013-03-01 01:35:00
7:55 PM,30.2,28.4,93,30.11,4.0,NW,11.5,-,N/A,Snow,Light Snow,310,2013-03-01 01:55:00
8:15 PM,28.4,28.4,100,30.11,2.5,NW,9.2,-,N/A,Snow,Light Snow,320,2013-03-01 02:15:00
8:35 PM,28.4,28.4,100,30.11,3.0,NW,11.5,16.1,N/A,Snow,Light Snow,320,2013-03-01 02:35:00
8:55 PM,28.4,28.4,100,30.11,3.0,NW,9.2,-,N/A,Snow,Light Snow,320,2013-03-01 02:55:00
9:15 PM,28.4,28.4,100,30.12,2.5,NW,9.2,-,N/A,Snow,Light Snow,320,2013-03-01 03:15:00
9:35 PM,28.4,28.4,100,30.12,4.0,NW,9.2,-,N/A,Snow,Light Snow,320,2013-03-01 03:35:00
10:15 PM,28.4,28.4,100,30.12,2.0,NNW,8.1,-,N/A,Snow,Light Snow,330,2013-03-01 04:15:00
10:35 PM,28.4,28.4,100,30.12,3.0,NW,8.1,-,N/A,Snow,Light Snow,320,2013-03-01 04:35:00
10:55 PM,28.4,28.4,100,30.12,4.0,NW,8.1,-,N/A,Snow,Light Snow,320,2013-03-01 04:55:00
11:15 PM,28.4,28.4,100,30.12,3.0,NW,8.1,-,N/A,Snow,Light Snow,320,2013-03-01 05:15:00
11:35 PM,28.4,26.6,93,30.11,2.5,NW,9.2,-,N/A,Snow,Light Snow,320,2013-03-01 05:35:00